Погода в Старом Усманове

Россия / Самарская область     54°02′58″N   52°21′29″E
темп.,
°C
ветер,
м/с
пор.,
м/с
влажн.,
%
обл.,
%
осадки,
мм/ч
давл.,
гПа
погр.,
м
5 марта, пт
пт501:000з71298100 1.7 999740
04:00−2з3796100 2.8 1000284
07:00−3зсз2498100 1.0 1000185
10:00−3с2396100 2.6 1000270
13:00−3с3596100 1.6 1001393
16:00−3ссз4695100 2.1 1004502
19:00−9сз349258 0.1 100736
22:00−12сз239329 0.1 101021
6 марта, сб
сб601:00−14з12940 0.0 101220
04:00−15зюз22940 0.0 101320
07:00−15ююз239638 0.0 101321
10:00−10зюз489552 0.1 1014284
13:00−8з4693100 0.1 1014408
16:00−8з3593100 0.1 1014416
19:00−12зсз3397100 0.0 101434
22:00−14ссз2395100 0.1 101428
7 марта, вс
вс701:00−17ссз2396100 0.0 101227
04:00−18с239297 0.0 101221
07:00−19ссз239517 0.0 101220
10:00−15зсз23919 0.0 1012143
13:00−11з369276 0.0 1012404
16:00−11зюз479288 0.1 1011527
19:00−14ююз349782 0.1 101043
22:00−14ю499988 0.1 1009197
8 марта, пн
пн801:00−12ю71495100 0.1 1006445
04:00−9ю81594100 0.6 1002757
07:00−7ююз91694100 1.6 998941
10:00−7зюз81392100 2.6 1000790
13:00−6зюз7118637 0.1 1004759
16:00−6ююз7128520 0.1 1005633
19:00−8ю51193100 0.1 1002287
22:00−4ю81496100 2.0 999838
9 марта, вт
вт901:00−6зюз101594100 2.3 997748
04:00−10зюз101791100 2.7 1000887
07:00−11з81591100 0.1 1005620
10:00−11з71193100 0.3 1008487
13:00−10зюз5892100 0.1 1010509
16:00−10зюз4790100 0.1 1011615
19:00−13зюз2397100 0.1 101223
22:00−14юз1297100 0.2 101320